AAL814 KSLC-KLAS

Flight info

Callsign AAL814
Flight time 0h 52m
Altitude 30000
Route ZIONZ1 EHK STEWW CHOWW4
Aircraft A321/M-SDE3FGHIRWY/LB1

Departure

Time 2026-05-07 21:04
Airport Salt Lake City International Airport (KSLC)

Arrival

Time 2026-05-07 21:57
Airport Harry Reid International Airport (KLAS)
Time Latitude Longitude Altitude Speed Heading
2026-05-07 20:36 40.78659 -111.97930 4231 ft 0 kts 175°
2026-05-07 20:55 40.78662 -111.97930 4231 ft 3 kts 174°
2026-05-07 20:55 40.78686 -111.97939 4231 ft 4 kts 152°
2026-05-07 20:55 40.78707 -111.97949 4231 ft 4 kts 176°
2026-05-07 20:56 40.78733 -111.97947 4231 ft 4 kts 200°
2026-05-07 20:56 40.78753 -111.97928 4231 ft 4 kts 246°
2026-05-07 20:56 40.78756 -111.97897 4231 ft 4 kts 295°
2026-05-07 20:56 40.78747 -111.97879 4231 ft 4 kts 25°
2026-05-07 20:57 40.78748 -111.97869 4231 ft 0 kts 85°
2026-05-07 20:59 40.78749 -111.97847 4231 ft 5 kts 85°
2026-05-07 20:59 40.78767 -111.97793 4231 ft 10 kts 39°
2026-05-07 20:59 40.78860 -111.97791 4231 ft 17 kts 354°
2026-05-07 20:59 40.78988 -111.97807 4231 ft 19 kts 354°
2026-05-07 21:00 40.79121 -111.97822 4231 ft 20 kts 355°
2026-05-07 21:00 40.79267 -111.97836 4231 ft 21 kts 355°
2026-05-07 21:00 40.79415 -111.97859 4231 ft 22 kts 355°
2026-05-07 21:00 40.79567 -111.97874 4231 ft 22 kts 356°
2026-05-07 21:01 40.79719 -111.97890 4231 ft 22 kts 354°
2026-05-07 21:01 40.79868 -111.97910 4231 ft 21 kts 354°
2026-05-07 21:01 40.80013 -111.97927 4231 ft 21 kts 355°
2026-05-07 21:01 40.80155 -111.97945 4231 ft 20 kts 355°
2026-05-07 21:02 40.80294 -111.97967 4231 ft 20 kts 347°
2026-05-07 21:02 40.80428 -111.98002 4231 ft 20 kts 355°
2026-05-07 21:02 40.80563 -111.98015 4231 ft 19 kts 354°
2026-05-07 21:02 40.80642 -111.97999 4231 ft 10 kts 45°
2026-05-07 21:03 40.80670 -111.97892 4231 ft 14 kts 65°
2026-05-07 21:03 40.80741 -111.97815 4230 ft 14 kts 60°
2026-05-07 21:03 40.80707 -111.97701 4229 ft 15 kts 147°
2026-05-07 21:03 40.80572 -111.97678 4231 ft 40 kts 175°
2026-05-07 21:04 40.80060 -111.97619 4233 ft 106 kts 175°
2026-05-07 21:04 40.79145 -111.97513 4232 ft 160 kts 175°
2026-05-07 21:04 40.77885 -111.97363 4291 ft 200 kts 176°
2026-05-07 21:04 40.76493 -111.97147 4916 ft 198 kts 175°
2026-05-07 21:05 40.75155 -111.96795 5661 ft 195 kts 172°
2026-05-07 21:05 40.73812 -111.96451 6155 ft 199 kts 172°
2026-05-07 21:05 40.72462 -111.96138 6471 ft 196 kts 174°
2026-05-07 21:05 40.71099 -111.96015 6696 ft 197 kts 179°
2026-05-07 21:06 40.69724 -111.96005 6908 ft 198 kts 181°
2026-05-07 21:06 40.68343 -111.96009 7088 ft 201 kts 181°
2026-05-07 21:06 40.66922 -111.95964 7233 ft 207 kts 180°
2026-05-07 21:06 40.65453 -111.95887 7355 ft 217 kts 181°
2026-05-07 21:07 40.63904 -111.95778 7483 ft 228 kts 181°
2026-05-07 21:07 40.62297 -111.95637 7671 ft 236 kts 179°
2026-05-07 21:07 40.60617 -111.95505 7900 ft 249 kts 183°
2026-05-07 21:07 40.58825 -111.95480 8053 ft 267 kts 184°
2026-05-07 21:08 40.56896 -111.95479 8293 ft 284 kts 184°
2026-05-07 21:08 40.54897 -111.95468 8852 ft 290 kts 183°
2026-05-07 21:08 40.52868 -111.95424 9500 ft 293 kts 184°
2026-05-07 21:08 40.50816 -111.95365 10092 ft 298 kts 182°
2026-05-07 21:09 40.48675 -111.95304 10264 ft 318 kts 183°
2026-05-07 21:09 40.46387 -111.95237 10376 ft 340 kts 182°
2026-05-07 21:09 40.43954 -111.95132 10488 ft 359 kts 180°
2026-05-07 21:09 40.41394 -111.94965 10593 ft 377 kts 179°
2026-05-07 21:10 40.38733 -111.94763 10913 ft 387 kts 179°
2026-05-07 21:10 40.36023 -111.94545 11403 ft 392 kts 179°
2026-05-07 21:10 40.33289 -111.94327 11936 ft 396 kts 179°
2026-05-07 21:10 40.30531 -111.94120 12487 ft 399 kts 179°
2026-05-07 21:11 40.27745 -111.93935 13078 ft 402 kts 182°
2026-05-07 21:11 40.24955 -111.94151 13617 ft 403 kts 190°
2026-05-07 21:11 40.19345 -111.95063 14656 ft 410 kts 190°
2026-05-07 21:12 40.16499 -111.95514 15154 ft 414 kts 190°
2026-05-07 21:12 40.13661 -111.95959 15635 ft 418 kts 191°
2026-05-07 21:12 40.10758 -111.96405 16146 ft 422 kts 190°
2026-05-07 21:12 40.07825 -111.96837 16620 ft 426 kts 190°
2026-05-07 21:13 40.04864 -111.97266 17049 ft 430 kts 190°
2026-05-07 21:13 40.01877 -111.97693 17506 ft 434 kts 190°
2026-05-07 21:13 39.98863 -111.98129 17957 ft 438 kts 190°
2026-05-07 21:13 39.95824 -111.98571 18382 ft 442 kts 190°
2026-05-07 21:14 39.92762 -111.99020 18753 ft 445 kts 190°
2026-05-07 21:14 39.89670 -111.99471 19141 ft 448 kts 190°
2026-05-07 21:14 39.86561 -111.99925 19518 ft 451 kts 190°
2026-05-07 21:14 39.83430 -112.00382 19878 ft 455 kts 190°
2026-05-07 21:15 39.80275 -112.00846 20268 ft 458 kts 190°
2026-05-07 21:15 39.77098 -112.01313 20653 ft 461 kts 190°
2026-05-07 21:15 39.73900 -112.01777 21001 ft 464 kts 190°
2026-05-07 21:15 39.70681 -112.02242 21359 ft 467 kts 190°
2026-05-07 21:16 39.67441 -112.02709 21701 ft 470 kts 189°
2026-05-07 21:16 39.64181 -112.03178 22054 ft 473 kts 189°
2026-05-07 21:16 39.60904 -112.03650 22396 ft 476 kts 189°
2026-05-07 21:16 39.57603 -112.04124 22735 ft 479 kts 189°
2026-05-07 21:17 39.54279 -112.04600 23070 ft 482 kts 189°
2026-05-07 21:17 39.50938 -112.05081 23399 ft 484 kts 189°
2026-05-07 21:17 39.47580 -112.05566 23702 ft 487 kts 189°
2026-05-07 21:17 39.44207 -112.06055 23984 ft 489 kts 189°
2026-05-07 21:18 39.40817 -112.06541 24240 ft 491 kts 189°
2026-05-07 21:18 39.37412 -112.07027 24532 ft 493 kts 189°
2026-05-07 21:18 39.33997 -112.07511 24832 ft 495 kts 189°
2026-05-07 21:18 39.30566 -112.07995 25133 ft 497 kts 189°
2026-05-07 21:19 39.27123 -112.08481 25428 ft 499 kts 189°
2026-05-07 21:19 39.23668 -112.08970 25729 ft 501 kts 189°
2026-05-07 21:19 39.20195 -112.09459 26012 ft 503 kts 189°
2026-05-07 21:19 39.16725 -112.10023 26314 ft 502 kts 193°
2026-05-07 21:20 39.13359 -112.11123 26689 ft 497 kts 201°
2026-05-07 21:20 39.10181 -112.12805 27071 ft 492 kts 210°
2026-05-07 21:20 39.07200 -112.14938 27428 ft 490 kts 213°
2026-05-07 21:20 39.04242 -112.17112 27819 ft 489 kts 213°
2026-05-07 21:21 39.01286 -112.19275 28201 ft 489 kts 213°
2026-05-07 21:21 38.98328 -112.21426 28588 ft 488 kts 213°
2026-05-07 21:21 38.95412 -112.23542 28987 ft 487 kts 213°
2026-05-07 21:21 38.92425 -112.25711 29369 ft 487 kts 213°
2026-05-07 21:22 38.89516 -112.27822 29738 ft 486 kts 213°
2026-05-07 21:22 38.86571 -112.29959 30052 ft 487 kts 213°
2026-05-07 21:22 38.80699 -112.34214 30093 ft 484 kts 213°
2026-05-07 21:23 38.74770 -112.38506 30086 ft 493 kts 213°
2026-05-07 21:23 38.68793 -112.42827 30063 ft 494 kts 212°
2026-05-07 21:24 38.62784 -112.47149 30040 ft 496 kts 212°
2026-05-07 21:24 38.56769 -112.51465 30044 ft 496 kts 212°
2026-05-07 21:25 38.50754 -112.55773 30044 ft 496 kts 212°
2026-05-07 21:25 38.44741 -112.60087 30048 ft 496 kts 212°
2026-05-07 21:26 38.38722 -112.64391 30059 ft 496 kts 212°
2026-05-07 21:26 38.32702 -112.68684 30065 ft 496 kts 212°
2026-05-07 21:27 38.26680 -112.72974 30057 ft 496 kts 212°
2026-05-07 21:27 38.20656 -112.77258 30052 ft 496 kts 212°
2026-05-07 21:28 38.14629 -112.81539 30021 ft 497 kts 212°
2026-05-07 21:28 38.08589 -112.85805 30003 ft 497 kts 212°
2026-05-07 21:29 38.02548 -112.90073 30007 ft 497 kts 212°
2026-05-07 21:29 37.96504 -112.94335 30056 ft 497 kts 212°
2026-05-07 21:30 37.90452 -112.98593 30089 ft 498 kts 212°
2026-05-07 21:30 37.84395 -113.02844 30124 ft 498 kts 212°
2026-05-07 21:31 37.78362 -113.07155 30152 ft 497 kts 216°
2026-05-07 21:31 37.72712 -113.12065 30146 ft 496 kts 217°
2026-05-07 21:32 37.67018 -113.17001 30149 ft 497 kts 217°
2026-05-07 21:32 37.61308 -113.21935 30126 ft 498 kts 217°
2026-05-07 21:33 37.55594 -113.26882 30092 ft 498 kts 217°
2026-05-07 21:33 37.49883 -113.31827 30056 ft 498 kts 217°
2026-05-07 21:34 37.44167 -113.36743 30039 ft 496 kts 217°
2026-05-07 21:34 37.38482 -113.41615 30012 ft 492 kts 216°
2026-05-07 21:35 37.32839 -113.46454 30006 ft 490 kts 216°
2026-05-07 21:35 37.27216 -113.51264 29996 ft 488 kts 216°
2026-05-07 21:36 37.21306 -113.55467 30032 ft 490 kts 206°
2026-05-07 21:36 37.15133 -113.59082 30038 ft 490 kts 206°
2026-05-07 21:37 37.09996 -113.62083 30030 ft 490 kts 206°
2026-05-07 21:37 37.03809 -113.65691 29595 ft 491 kts 206°
2026-05-07 21:38 36.99659 -113.68107 28091 ft 500 kts 206°
2026-05-07 21:38 36.96496 -113.69946 27251 ft 501 kts 206°
2026-05-07 21:38 36.93347 -113.71777 26475 ft 499 kts 206°
2026-05-07 21:38 36.90215 -113.73606 25976 ft 493 kts 206°
2026-05-07 21:39 36.88119 -113.74832 25424 ft 491 kts 206°
2026-05-07 21:39 36.85090 -113.76605 24762 ft 473 kts 206°
2026-05-07 21:39 36.82122 -113.78336 24206 ft 469 kts 206°
2026-05-07 21:39 36.79175 -113.80053 23620 ft 466 kts 206°
2026-05-07 21:40 36.75300 -113.82308 22792 ft 461 kts 206°
2026-05-07 21:40 36.73345 -113.83444 22428 ft 456 kts 206°
2026-05-07 21:40 36.70484 -113.85105 21886 ft 451 kts 206°
2026-05-07 21:40 36.67657 -113.86743 21359 ft 445 kts 206°
2026-05-07 21:41 36.64866 -113.88358 20831 ft 440 kts 206°
2026-05-07 21:41 36.62150 -113.89945 20346 ft 435 kts 208°
2026-05-07 21:41 36.59601 -113.91903 19865 ft 428 kts 219°
2026-05-07 21:41 36.57400 -113.94346 19396 ft 421 kts 229°
2026-05-07 21:42 36.55567 -113.97152 18938 ft 416 kts 235°
2026-05-07 21:42 36.53815 -114.00003 18444 ft 414 kts 234°
2026-05-07 21:42 36.52068 -114.02823 18074 ft 406 kts 234°
2026-05-07 21:42 36.50401 -114.05497 17896 ft 376 kts 234°
2026-05-07 21:43 36.48859 -114.07959 17686 ft 349 kts 234°
2026-05-07 21:43 36.47395 -114.10306 17255 ft 339 kts 234°
2026-05-07 21:43 36.45969 -114.12593 16562 ft 332 kts 234°
2026-05-07 21:43 36.44577 -114.14832 16367 ft 329 kts 235°
2026-05-07 21:44 36.43175 -114.17094 16276 ft 332 kts 235°
2026-05-07 21:44 36.41760 -114.19372 16129 ft 332 kts 234°
2026-05-07 21:44 36.40349 -114.21637 15988 ft 331 kts 234°
2026-05-07 21:44 36.38942 -114.23894 15793 ft 331 kts 234°
2026-05-07 21:45 36.37514 -114.26160 15302 ft 333 kts 234°
2026-05-07 21:45 36.36079 -114.28409 14977 ft 330 kts 234°
2026-05-07 21:45 36.34657 -114.30626 14523 ft 328 kts 234°
2026-05-07 21:45 36.33257 -114.32809 14085 ft 322 kts 234°
2026-05-07 21:46 36.31888 -114.34945 13687 ft 321 kts 234°
2026-05-07 21:46 36.30511 -114.37098 13257 ft 318 kts 233°
2026-05-07 21:46 36.29143 -114.39239 12842 ft 317 kts 233°
2026-05-07 21:46 36.27775 -114.41380 12459 ft 316 kts 233°
2026-05-07 21:47 36.26410 -114.43515 12056 ft 316 kts 233°
2026-05-07 21:47 36.25047 -114.45645 11657 ft 313 kts 233°
2026-05-07 21:47 36.23700 -114.47726 11273 ft 309 kts 233°
2026-05-07 21:47 36.22348 -114.49795 10892 ft 309 kts 233°
2026-05-07 21:48 36.20996 -114.51855 10502 ft 308 kts 233°
2026-05-07 21:48 36.19664 -114.53885 10124 ft 301 kts 233°
2026-05-07 21:48 36.18342 -114.55904 9758 ft 302 kts 233°
2026-05-07 21:48 36.17020 -114.57924 9357 ft 302 kts 233°
2026-05-07 21:49 36.15704 -114.59935 8983 ft 300 kts 233°
2026-05-07 21:49 36.14398 -114.61931 8724 ft 295 kts 233°
2026-05-07 21:49 36.13113 -114.63892 8545 ft 290 kts 233°
2026-05-07 21:49 36.11861 -114.65804 8410 ft 282 kts 233°
2026-05-07 21:50 36.10642 -114.67664 8259 ft 274 kts 233°
2026-05-07 21:50 36.09465 -114.69459 8170 ft 262 kts 233°
2026-05-07 21:50 36.08348 -114.71171 8035 ft 250 kts 236°
2026-05-07 21:50 36.07570 -114.73033 7904 ft 242 kts 255°
2026-05-07 21:51 36.07319 -114.75051 7657 ft 237 kts 271°
2026-05-07 21:51 36.07324 -114.77086 7379 ft 236 kts 272°
2026-05-07 21:51 36.07332 -114.79108 7086 ft 235 kts 271°
2026-05-07 21:51 36.07337 -114.81122 6795 ft 233 kts 271°
2026-05-07 21:52 36.07341 -114.83115 6506 ft 230 kts 271°
2026-05-07 21:52 36.07345 -114.85078 6221 ft 226 kts 271°
2026-05-07 21:52 36.07348 -114.86984 5950 ft 217 kts 271°
2026-05-07 21:52 36.07351 -114.88812 5655 ft 210 kts 271°
2026-05-07 21:53 36.07354 -114.90608 5384 ft 207 kts 271°
2026-05-07 21:53 36.07356 -114.92348 5144 ft 199 kts 271°
2026-05-07 21:53 36.07358 -114.94053 4877 ft 198 kts 270°
2026-05-07 21:53 36.07360 -114.95752 4621 ft 197 kts 270°
2026-05-07 21:54 36.07362 -114.97450 4400 ft 197 kts 270°
2026-05-07 21:54 36.07363 -114.99140 4152 ft 197 kts 271°
2026-05-07 21:54 36.07364 -115.00822 3913 ft 192 kts 271°
2026-05-07 21:54 36.07365 -115.02355 3691 ft 172 kts 270°
2026-05-07 21:55 36.07365 -115.03797 3480 ft 165 kts 270°
2026-05-07 21:55 36.07367 -115.05198 3284 ft 162 kts 270°
2026-05-07 21:55 36.07368 -115.06581 3084 ft 161 kts 270°
2026-05-07 21:55 36.07368 -115.07954 2886 ft 159 kts 270°
2026-05-07 21:56 36.07370 -115.09317 2629 ft 158 kts 270°
2026-05-07 21:56 36.07369 -115.10670 2406 ft 157 kts 270°
2026-05-07 21:56 36.07367 -115.12014 2187 ft 156 kts 270°
2026-05-07 21:56 36.07364 -115.13322 2073 ft 141 kts 270°
2026-05-07 21:57 36.07364 -115.14368 2090 ft 104 kts 270°
2026-05-07 21:57 36.07363 -115.15106 2098 ft 54 kts 270°
2026-05-07 21:57 36.07407 -115.15362 2106 ft 25 kts 289°
2026-05-07 21:57 36.07488 -115.15552 2108 ft 25 kts 304°
2026-05-07 21:58 36.07594 -115.15689 2119 ft 19 kts 316°
2026-05-07 21:58 36.07684 -115.15794 2121 ft 18 kts 321°
2026-05-07 21:58 36.07797 -115.15794 2111 ft 16 kts 59°
2026-05-07 21:58 36.07803 -115.15638 2106 ft 20 kts 90°
2026-05-07 21:59 36.07805 -115.15455 2103 ft 22 kts 89°
2026-05-07 21:59 36.07806 -115.15263 2101 ft 22 kts 91°
2026-05-07 21:59 36.07803 -115.15068 2100 ft 22 kts 94°
2026-05-07 21:59 36.07791 -115.14908 2100 ft 18 kts 95°
2026-05-07 22:00 36.07781 -115.14745 2098 ft 20 kts 94°
2026-05-07 22:00 36.07771 -115.14571 2097 ft 21 kts 94°
2026-05-07 22:00 36.07758 -115.14390 2096 ft 21 kts 95°
2026-05-07 22:00 36.07755 -115.14223 2095 ft 15 kts 89°
2026-05-07 22:01 36.07788 -115.14159 2094 ft 9 kts 10°
2026-05-07 22:01 36.07861 -115.14158 2094 ft 11 kts
2026-05-07 22:01 36.07909 -115.14097 2094 ft 12 kts 86°
2026-05-07 22:01 36.07910 -115.13991 2093 ft 12 kts 89°
2026-05-07 22:02 36.07934 -115.13899 2093 ft 12 kts 56°
2026-05-07 22:02 36.07986 -115.13891 2093 ft 8 kts 320°
2026-05-07 22:02 36.08017 -115.13930 2093 ft 2 kts 314°
2026-05-07 22:02 36.08020 -115.13935 2093 ft 1 kts 315°